Regional Weather Roundup
Issued by NWS

Home | Current Version | Previous Version | Text Only | Print | Product List | Glossary Off
Versions: 1 2 3 4 5 6 7 8 9 10 11 12 13 14 15 16 17 18 19 20 21 22 23 24 25 26 27 28 29 30 31 32 33 34 35 36 37 38 39 40 41 42 43 44 45 46 47 48 49 50

000
ASUS43 KMPX 241801
RWRMN
WEATHER ROUNDUP FOR MINNESOTA
NATIONAL WEATHER SERVICE TWIN CITIES/CHANHASSEN MN
1200 PM CST WED DEC 24 2014


NOTE: "FAIR" INDICATES FEW OR NO CLOUDS BELOW 12,000 FEET WITH NO
SIGNIFICANT WEATHER AND/OR OBSTRUCTIONS TO VISIBILITY. N/A MEANS
CURRENT SKY AND/OR WEATHER CONDITIONS ARE NOT AVAILABLE.

MNZ060>063-068>070-241900-
   Twin Cities Metro

CITY           SKY/WX    TMP DP  RH WIND       PRES   REMARKS
TWIN CITIES    CLOUDY    35  30  82 NW10      29.71F WCI  27
6HR MIN TEMP:  34; 6HR MAX TEMP:  36;

ST PAUL        CLOUDY    35  31  85 N8        29.71F WCI  29
CRYSTAL        CLOUDY    36  31  82 NW10      29.71F
BLAINE         CLOUDY    36  36 100 NW9       29.71F
LAKEVILLE      CLOUDY    34  30  86 NW12      29.70F WCI  25
EDEN PRAIRIE   CLOUDY    35  29  78 NW9       29.71F WCI  28
6HR MIN TEMP:  34; 6HR MAX TEMP:  35;

SOUTH ST PAUL  CLOUDY    36  32  86 N9        29.70F
LAKE ELMO      CLOUDY    36  32  87 N7        29.70F
$$
MNZ001>005-007-008-013>017-022>024-027-028-241900-
   Northwest Minnesota

CITY           SKY/WX    TMP DP  RH WIND       PRES   REMARKS
BEMIDJI        CLOUDY    31  29  94 W5        29.67F WCI  26
HALLOCK        CLOUDY    28  27  93 S13       29.67F WCI  18
ROSEAU         CLOUDY    30  27  86 SW7       29.67F WCI  23
WARROAD        CLOUDY    30  27  86 SW5       29.67F WCI  25
THIEF RVR FALL CLOUDY    28  27  93 SW13      29.69F WCI  18
CROOKSTON      CLOUDY    28  27  93 SW10      29.72F WCI  19
FOSSTON        CLOUDY    28  27  93 SW8       29.70F WCI  20
DETROIT LAKES  MIX PCPN  30  30 100 W5        29.71F WCI  25
MOORHEAD       CLOUDY    28  28 100 W10       29.74F WCI  19
PARK RAPIDS    CLOUDY    32  30  92 W6        29.68F WCI  26
MAHNOMEN       CLOUDY    29  27  94 W8        29.71F WCI  21
$$
MNZ006-009>011-018-025>026-241900-
   North Central Minnesota

CITY           SKY/WX    TMP DP  RH WIND       PRES   REMARKS
BAUDETTE       CLOUDY    32  29  88 CALM      29.66F
FLAG ISLAND    CLOUDY    30  28  93 SW6       29.66F WCI  24
INTL FALLS     CLOUDY    33  32  96 CALM      29.66F FOG
6HR MIN TEMP:  32; 6HR MAX TEMP:  33; 6HR PCP: TRACE;

WASKISH        CLOUDY    32  30  93 CALM      29.68F
BIG FORK       CLOUDY    34  32  93 CALM      29.66F
LONGVILLE      CLOUDY    32  30  93 W3        29.68F
GRAND RAPIDS   CLOUDY    32  30  93 W3        29.66F
CRANE LAKE     CLOUDY    30  30 100 CALM      29.69F
ORR            CLOUDY    32  30  93 CALM      29.64F FOG
COOK           CLOUDY    30  30 100 CALM      29.67F
WALKER         CLOUDY    31  30  96 W6        29.68F WCI  25
$$
MNZ012-019>021-037-241900-
   Northeast Minnesota

CITY           SKY/WX    TMP DP  RH WIND       PRES   REMARKS
DULUTH         PTSUNNY   34  27  75 N6        29.66F WCI  29
6HR MIN TEMP:  32; 6HR MAX TEMP:  34;

ELY            CLOUDY    30  27  86 CALM      29.65F
HIBBING        CLOUDY    33  29  85 CALM      29.66F
EVELETH        CLOUDY    32  32 100 NW5       29.67F WCI  27
DULUTH HARBOR  CLOUDY    36  30  80 CALM      29.70F
TWO HARBORS    CLOUDY    37  30  75 CALM      29.65F
SILVER BAY     CLOUDY    37  30  75 CALM      29.64F
GRAND MARAIS     N/A     36  29  75 CALM      29.66F
G MARAIS ARPRT CLOUDY    28  25  86 N5        29.62F WCI  23
$$
MNZ029>031-032-039>041-046>048-054>057-064-241900-
   West Central Minnesota

CITY           SKY/WX    TMP DP  RH WIND       PRES   REMARKS
FERGUS FALLS   CLOUDY    28  28 100 W9        29.75F WCI  20
WHEATON        CLOUDY    25  25 100 W10       29.78F WCI  15
MORRIS         PTSUNNY   30  28  93 NW8       29.74F WCI  23
ALEXANDRIA     CLOUDY    30  29  96 W7        29.72F FOG     WCI  23
ELBOW LAKE     CLOUDY    28  28  96 W9        29.73F WCI  20
WADENA         CLOUDY    28  28 100 W7        29.69F FOG     WCI  21
GLENWOOD       CLOUDY    30  30 100 W6        29.72F FOG     WCI  24
APPLETON       CLOUDY    30  28  93 W10       29.77F WCI  21
BENSON         MIX PCPN  30  28  93 NW8       29.74F WCI  23
ORTONVILLE     CLOUDY    28  25  86 NW8       29.76F WCI  20
MADISON        LGT SNOW  34  30  86 W8        29.77F WCI  27
WILLMAR        CLOUDY    32  30  93 NW9       29.75F FOG     WCI  24
$$
MNZ033>034-036-042>043-049>051-058-059-241900-
   Central Minnesota

CITY           SKY/WX    TMP DP  RH WIND       PRES   REMARKS
ST CLOUD       CLOUDY    36  31  82 NW8       29.71F
6HR MIN TEMP:  34; 6HR MAX TEMP:  36;

SAUK CENTRE    CLOUDY    31  30  95 NW6       29.72F WCI  25
PAYNESVILLE    CLOUDY    29  29 100 SW7       29.73F FOG     WCI  22
AITKIN         CLOUDY    36  30  80 CALM      29.68F
PINE RIVER     CLOUDY    32  32 100 W3        29.72F
BRAINERD       CLOUDY    33  31  92 W6        29.69F WCI  28
STAPLES        CLOUDY    30  30 100 W5        29.69F WCI  25
LONG PRAIRIE   CLOUDY    30  30 100 W5        29.71F WCI  25
LITTLE FALLS   CLOUDY    32  30  93 W5        29.71F WCI  27
LITCHFIELD     CLOUDY    34  34 100 W8        29.74F FOG     WCI  27
BUFFALO        CLOUDY    34  31  87 W5        29.73F WCI  30
MAPLE LAKE     CLOUDY    35  33  92 W7        29.73F WCI  29
$$
MNZ037-044-045-052-053-241900-
   East Central Minnesota

CITY           SKY/WX    TMP DP  RH WIND       PRES   REMARKS
PRINCETON      CLOUDY    36  32  87 W6        29.71F
MORA           CLOUDY    34  30  86 NW5       29.72F WCI  30
CAMBRIDGE      CLOUDY    36  28  75 W5        29.70F
RUSH CITY      CLOUDY    35  32  89 W7        29.70F WCI  29
MOOSE LAKE     CLOUDY    34  32  93 NW5       29.67F WCI  30
HINCKLEY       CLOUDY    34  32  93 CALM      29.70F
CLOQUET        LGT SNOW  34  30  86 CALM      29.67F
MCGREGOR       CLOUDY    32  32 100 W3        29.69F
$$
MNZ071>073-080-081-089-090-097-098-241900-
   Southwest Minnesota

CITY           SKY/WX    TMP DP  RH WIND       PRES   REMARKS
MONTEVIDEO     CLOUDY    30  30 100 NW6       29.76F WCI  24
GRANITE FALLS  CLOUDY    31  29  93 W12       29.77F WCI  22
CANBY          CLOUDY    30  27  88 W8        29.78F WCI  23
MARSHALL       CLOUDY    30  25  80 NW12      29.76F WCI  21
REDWOOD FALLS  CLOUDY    32  30  92 NW8       29.75F WCI  25
OLIVIA         CLOUDY    30  30 100 NW8       29.74F FOG     WCI  23
PIPESTONE      CLOUDY    28  27  93 W9        29.75F FOG     WCI  20
WINDOM         LGT SNOW  30  30 100 NW8       29.74F WCI  23
WORTHINGTON    CLOUDY    30 -17  12 NW10      29.76F WCI  21
JACKSON        CLOUDY    32  30  93 NW14      29.75F WCI  22
TRACY          CLOUDY    31  30  94 NW12      29.76F WCI  22
SLAYTON        CLOUDY    30  29  96 NW7       29.76F WCI  23
$$
MNZ065>067-074>077-082>085-091>093-241900-
   South Central Minnesota

CITY           SKY/WX    TMP DP  RH WIND       PRES   REMARKS
MANKATO        CLOUDY    34  28  80 NW10      29.73F WCI  26
NEW ULM        CLOUDY    32  32 100 NW9       29.74F FOG     WCI  24
FAIRMONT       CLOUDY    32  27  80 NW12      29.74F WCI  23
GLENCOE        CLOUDY    35  32  91 NW6       29.73F WCI  30
FARIBAULT      CLOUDY    36  30  80 W12       29.71F
OWATONNA       PTSUNNY   34  30  86 NW14      29.70F WCI  24
ALBERT LEA     CLOUDY    34  34 100 NW9       29.69F FOG     WCI  26
$$
MNZ078>079-086>088-094>096-241900-
   Southeast Minnesota

CITY           SKY/WX    TMP DP  RH WIND       PRES   REMARKS
ROCHESTER      LGT RAIN  33  31  92 N15       29.66F FOG     WCI  23
6HR MIN TEMP:  33; 6HR MAX TEMP:  33; 6HR PCP:  0.01;

RED WING       CLOUDY    37  32  81 N3        29.67F
STANTON        CLOUDY    36  32  85 NW12      29.68F
DODGE CENTER   CLOUDY    34  32  93 NW12      29.66F WCI  25
WINONA         CLOUDY    37  32  81 N8        29.65F
AUSTIN         CLOUDY    34  30  86 NW13      29.67F WCI  25
PRESTON        CLOUDY    33  31  90 N12       29.64F WCI  24
$$
ABBREVIATIONS USED IN REMARKS
   TC - TEMPERATURES IN CELSIUS
  WCI - WIND CHILL INDEX
   HX - HEAT INDEX
  VSB - VISIBILITY
$$



USA.gov is the U.S. government's official web portal to all federal, state and local government web resources and services.